Content
SEND FEEDBACK

Daily
Averages
Monthly
Summary
United Kingdom

WINCHESTER, ENGLAND


Home > Europe > United Kingdom > England
Elevation: 297 feet     Latitude: 51 09N     Longitude: 001 34W

WEATHER
 
SELECT A DAY
Number of Records: 58,722;   Date Range: 10/20/98 - 7/28/14
 
SHARE

PRINT THIS DATA

[ ← Previous Day ]
WEATHER ALMANAC - MAY 3, 2013
[ Next Day → ]
[ °C ]   °F
Weather ElementAverageHighLow
Temperature51.1 °F60.8 °F (2:50 pm)39 °F (3:50 am)
Dewpoint37.4 °F41 °F (9:50 pm)32 °F (12:50 am)
Humidity58.9 %87 % (5:50 am)33 % (3:50 pm)
Barometer30.12 in30.18 in (12:50 am)30.06 in (6:50 pm)
Wind Speed7.5 mph12.7 mph (12:50 pm)
Weather ElementAverage
Visibility9 mi
Wind DirectionWSW (263.2 °)

Weather ElementTotal
Precipitation---
Heating Degree Days15.1 (Base 65)
Averaged from 31 records on May 3, 2013
WEATHER CONDITIONS BREAKOUT
WIND DIRECTION BREAKOUT
WEATHER BY HOUR - MAY 3, 2013
[ °C ]   °F
Local TimeTemperatureDewpointHumidityBarometerVisibilityWind DirectionWind SpeedGust SpeedPrecipitationEventsConditions
12:50 AM44.6 °F32.0 °F61 %30.18 inCalmClear
1:50 AM42.8 °F32.0 °F66 %30.15 in6.2 miCalm
2:50 AM41.0 °F33.8 °F76 %30.15 in6.2 miWNW (290°)2.3 mph
3:50 AM39.0 °F34.0 °F74 %30.17 in8.0 miWNW (290°)2.3 mph
3:50 AM39.2 °F33.8 °F81 %30.15 in6.2 miWNW (290°)2.3 mph
4:50 AM39.2 °F33.8 °F81 %30.12 in6.2 miWNW (290°)3.5 mph
5:50 AM39.2 °F35.6 °F87 %30.12 in6.2 miWNW (300°)3.5 mph
6:50 AM41.0 °F35.6 °F81 %30.15 inWest (280°)3.5 mphClear
6:50 AM42.0 °F36.0 °F73 %30.17 in9.0 miWest (280°)3.5 mphClear
7:50 AM46.4 °F37.4 °F71 %30.15 inNW (310°)5.8 mphClear
8:50 AM51.8 °F37.4 °F58 %30.15 inNW (310°)6.9 mphClear
9:50 AM54.0 °F37.0 °F40 %30.17 in19.0 miWest (280°)6.9 mphScattered Clouds
9:50 AM53.6 °F37.4 °F54 %30.15 in6.2 miWest (280°)6.9 mphPartly Cloudy
10:50 AM57.2 °F37.4 °F48 %30.15 in6.2 miNW (310°)10.4 mphPartly Cloudy
11:50 AM57.2 °F37.4 °F48 %30.12 in6.2 miWest (270°)10.4 mphPartly Cloudy
12:50 PM59.0 °F39.2 °F48 %30.12 in6.2 miWest (280°)12.7 mphScattered Clouds
12:50 PM58.0 °F40.0 °F39 %30.14 in16.0 miWest (280°)12.7 mphPartly Cloudy
1:50 PM59.0 °F39.2 °F48 %30.12 in6.2 miWNW (290°)10.4 mphScattered Clouds
2:50 PM60.8 °F39.2 °F45 %30.12 in6.2 miWest (280°)11.5 mphScattered Clouds
3:50 PM60.0 °F38.0 °F33 %30.11 in22.0 miWest (270°)12.7 mphPartly Cloudy
3:50 PM60.8 °F39.2 °F45 %30.09 in6.2 miWest (270°)12.7 mphScattered Clouds
4:50 PM59.0 °F39.2 °F48 %30.09 in6.2 miWest (270°)9.2 mphScattered Clouds
5:50 PM59.0 °F37.4 °F45 %30.09 in6.2 miWest (270°)11.5 mphScattered Clouds
6:50 PM57.2 °F39.2 °F51 %30.06 in6.2 miWest (280°)12.7 mphMostly Cloudy
6:50 PM57.0 °F39.0 °F39 %30.09 in22.0 miWest (280°)12.7 mphMostly Cloudy
7:50 PM53.6 °F39.2 °F58 %30.09 in6.2 miWNW (290°)10.4 mphMostly Cloudy
8:50 PM53.6 °F37.4 °F54 %30.09 in6.2 miWest (280°)9.2 mphMostly Cloudy
9:50 PM52.0 °F40.0 °F54 %30.11 in22.0 miWest (280°)6.9 mphMostly Cloudy
9:50 PM51.8 °F41.0 °F67 %30.09 in6.2 miWest (280°)6.9 mphMostly Cloudy
10:50 PM48.2 °F41.0 °F76 %30.09 in6.2 miWest (260°)5.8 mphPartly Cloudy
11:50 PM46.4 °F39.2 °F76 %30.06 in6.2 miSW (220°)5.8 mph
Hourly data recorded from EGVP, located miles away from Winchester, England







STORIES FROM OUR PARTNERS